TimeEDT,TemperatureF,Dew PointF,Humidity,Sea Level PressureIn,VisibilityMPH,Wind Direction,Wind SpeedMPH,Gust SpeedMPH,PrecipitationIn,Events,Conditions,WindDirDegrees,DateUTC
12:53 AM,62.1,57.9,86,30.10,10.0,NE,3.5,-,N/A,,Overcast,40,2012-09-02 04:53:00
1:53 AM,62.1,57.0,84,30.09,10.0,NE,3.5,-,N/A,,Overcast,50,2012-09-02 05:53:00
2:53 AM,62.1,57.0,84,30.09,10.0,NE,3.5,-,N/A,,Overcast,50,2012-09-02 06:53:00
3:53 AM,63.0,57.0,81,30.09,10.0,NE,4.6,-,N/A,,Overcast,50,2012-09-02 07:53:00
4:53 AM,63.0,55.0,75,30.09,10.0,ESE,3.5,-,N/A,,Scattered Clouds,110,2012-09-02 08:53:00
5:53 AM,55.9,54.0,93,30.09,10.0,Calm,Calm,-,N/A,,Partly Cloudy,0,2012-09-02 09:53:00
6:53 AM,57.0,55.0,93,30.10,10.0,Calm,Calm,-,N/A,,Scattered Clouds,0,2012-09-02 10:53:00
7:53 AM,64.0,57.9,80,30.10,10.0,Calm,Calm,-,N/A,,Scattered Clouds,0,2012-09-02 11:53:00
8:53 AM,69.1,57.0,65,30.10,10.0,Calm,Calm,-,N/A,,Clear,0,2012-09-02 12:53:00
9:53 AM,70.0,55.9,61,30.10,10.0,SE,8.1,-,N/A,,Mostly Cloudy,130,2012-09-02 13:53:00
10:53 AM,72.0,54.0,53,30.10,10.0,Variable,4.6,-,N/A,,Scattered Clouds,0,2012-09-02 14:53:00
11:53 AM,73.0,51.1,46,30.09,10.0,SW,5.8,-,N/A,,Mostly Cloudy,230,2012-09-02 15:53:00
12:53 PM,75.9,53.1,45,30.09,10.0,South,8.1,-,N/A,,Scattered Clouds,170,2012-09-02 16:53:00
1:53 PM,75.0,51.1,43,30.08,10.0,South,6.9,-,N/A,,Overcast,190,2012-09-02 17:53:00
2:53 PM,77.0,44.1,31,30.07,10.0,SW,4.6,-,N/A,,Mostly Cloudy,230,2012-09-02 18:53:00
3:53 PM,75.9,54.0,46,30.04,10.0,SSE,8.1,-,N/A,,Clear,160,2012-09-02 19:53:00
4:53 PM,75.9,45.0,33,30.05,10.0,SSW,8.1,-,N/A,,Clear,200,2012-09-02 20:53:00
5:53 PM,73.0,48.9,42,30.06,10.0,SSE,4.6,-,N/A,,Scattered Clouds,160,2012-09-02 21:53:00
6:53 PM,70.0,55.0,59,30.07,10.0,SW,4.6,-,N/A,,Overcast,220,2012-09-02 22:53:00
7:53 PM,66.9,53.1,61,30.09,10.0,Calm,Calm,-,0.00,,Mostly Cloudy,0,2012-09-02 23:53:00
8:53 PM,61.0,55.9,83,30.11,10.0,Calm,Calm,-,N/A,,Partly Cloudy,0,2012-09-03 00:53:00
9:53 PM,57.9,55.9,93,30.11,10.0,Calm,Calm,-,N/A,,Clear,0,2012-09-03 01:53:00
10:53 PM,57.9,55.0,90,30.13,10.0,Calm,Calm,-,N/A,,Clear,0,2012-09-03 02:53:00
11:53 PM,55.9,54.0,93,30.13,10.0,Calm,Calm,-,N/A,,Clear,0,2012-09-03 03:53:00